Skip Page Navigation
NASA JPL Caltech
NASA Logo - Jet Propulsion Laboratory + View the NASA Portal
+ Center for Near-Earth Object Studies
JPL Home Earth Solar System Stars & Galaxies Technology
JPL Solar System Dynamics
BODIES ORBITS EPHEMERIDES TOOLS PHYSICAL DATA DISCOVERY FAQ SITE MAP
IMPORTANT: The SSD Announcement email list is now available. Major changes are coming in the near future, including possible hostname and/or URL changes. To be notified of such changes, subscribe to this email list.

Please visit this page for more details.


JPL Small-Body Database Browser
Search: [ help ]  
74857 (1999 TT88)
Classification: Main-belt Asteroid          SPK-ID: 2074857
Ephemeris | Orbit Diagram | Orbital Elements | Mission Design | Physical Parameters | Discovery Circumstances | Close-Approach Data ]

[ show orbit diagram ]
Orbital Elements at Epoch 2458600.5 (2019-Apr-27.0) TDB
Reference: JPL 18 (heliocentric ecliptic J2000)
 Element Value Uncertainty (1-sigma)   Units 
e .1529933273199952 4.3148e-08  
a 2.302161219877515 1.1434e-08 au
q 1.949945914821395 1.0279e-07 au
i 5.526213175549242 5.0102e-06 deg
node 49.4503199977072 5.143e-05 deg
peri 203.3957855351119 5.7633e-05 deg
M 306.9653508934096 2.9326e-05 deg
tp 2458788.457312538957
(2019-Oct-31.95731254)
0.00010421 TDB
period 1275.857079360145
3.49
9.5053e-06
2.602e-08
d
yr
n .2821632656382982 2.1022e-09 deg/d
Q 2.654376524933635 1.3184e-08 au
  Orbit Determination Parameters
   # obs. used (total)      850  
   data-arc span      7717 days (21.13 yr)  
   first obs. used      1998-03-24  
   last obs. used      2019-05-10  
   planetary ephem.      DE431  
   SB-pert. ephem.      SB431-N16  
   condition code      0  
   norm. resid. RMS      .52414  
   source      ORB  
   producer      Otto Matic  
   solution date      2019-May-30 05:42:12  

Additional Information
 Earth MOID = .936883 au 
 Jupiter MOID = 2.38301 au 
 T_jup = 3.569 
[ show covariance matrix ]

Ephemeris | Orbit Diagram | Orbital Elements | Mission Design | Physical Parameters | Discovery Circumstances | Close-Approach Data ]

Physical Parameter Table
Parameter Symbol Value Units Sigma Reference Notes
absolute magnitude H 15.3   n/a MPO337822  

74857 (1999 TT88)          Discovered 1999-Oct-02 by LINEAR at Socorro
Reference: 20040415/Numbers.arcLast Updated: 2004-04-19

[ show close-approach data ]
Alternate Designations
 1999 TT88 = 1998 FP83 
Ephemeris | Orbit Diagram | Orbital Elements | Mission Design | Physical Parameters | Discovery Circumstances | Close-Approach Data ]
ABOUT SSD CREDITS/AWARDS PRIVACY/COPYRIGHT GLOSSARY LINKS
FirstGov 2019-Dec-13 03:00 UT
(server date/time)  
NASA Home Page
Site Manager:   Ryan S. Park
Webmaster  Alan B. Chamberlin